Stündliche Wetter Warwick

Heute, 21 Oktober, Mittwoch

Zeit Temperatur Niederschläge Wind Luftdruck Luftfeuchtigkeit
00:00 +16°C° 0 mm 1 m/S 767 mmHg 95%
01:00 +16°C° 0 mm 1 m/S 767 mmHg 95%
02:00 +16°C° 0 mm 1 m/S 767 mmHg 95%
03:00 +16°C° 0 mm 1 m/S 767 mmHg 95%
04:00 +16°C° 0 mm 1 m/S 767 mmHg 95%
05:00 +16°C° 0 mm 1 m/S 767 mmHg 95%
06:00 +16°C° 0 mm 1 m/S 768 mmHg 96%
07:00 +16°C° 0 mm 1 m/S 768 mmHg 96%
08:00 +19°C° 0 mm 1 m/S 768 mmHg 92%
09:00 +20°C° 0 mm 1 m/S 768 mmHg 87%
10:00 +21°C° 0 mm 1 m/S 767 mmHg 83%
11:00 +21°C° 0.1 mm 2 m/S 767 mmHg 82%
12:00 +22°C° 0.1 mm 3 m/S 767 mmHg 81%
13:00 +23°C° 0.1 mm 4 m/S 766 mmHg 80%
14:00 +24°C° 0.1 mm 3 m/S 766 mmHg 81%
15:00 +22°C° 0.1 mm 3 m/S 765 mmHg 83%
16:00 +22°C° 0.1 mm 3 m/S 765 mmHg 84%
17:00 +21°C° 0 mm 3 m/S 765 mmHg 88%
18:00 +20°C° 0 mm 3 m/S 765 mmHg 92%
19:00 +19°C° 0 mm 3 m/S 766 mmHg 96%
20:00 +19°C° 0 mm 3 m/S 766 mmHg 96%
21:00 +19°C° 0 mm 3 m/S 765 mmHg 96%
22:00 +19°C° 0 mm 3 m/S 765 mmHg 96%
23:00 +19°C° 0 mm 3 m/S 765 mmHg 96%

Morgen, 22 Oktober, Donnerstag

Zeit Temperatur Niederschläge Wind Luftdruck Luftfeuchtigkeit
00:00 +19°C° 0 mm 3 m/S 765 mmHg 97%
01:00 +18°C° 0 mm 3 m/S 765 mmHg 97%
02:00 +18°C° 0 mm 2 m/S 765 mmHg 97%
03:00 +18°C° 0 mm 2 m/S 765 mmHg 97%
04:00 +18°C° 0 mm 2 m/S 765 mmHg 97%
05:00 +19°C° 0 mm 1 m/S 765 mmHg 97%
06:00 +19°C° 0 mm 1 m/S 765 mmHg 96%
07:00 +19°C° 0 mm 1 m/S 765 mmHg 96%
08:00 +21°C° 0 mm 1 m/S 765 mmHg 86%
09:00 +23°C° 0 mm 1 m/S 766 mmHg 76%
10:00 +25°C° 0 mm 1 m/S 766 mmHg 66%
11:00 +26°C° 0 mm 1 m/S 765 mmHg 62%
12:00 +26°C° 0 mm 1 m/S 765 mmHg 58%
13:00 +27°C° 0 mm 1 m/S 765 mmHg 54%
14:00 +26°C° 0 mm 1 m/S 765 mmHg 58%
15:00 +25°C° 0 mm 1 m/S 765 mmHg 61%
16:00 +24°C° 0 mm 1 m/S 765 mmHg 64%
17:00 +22°C° 0 mm 1 m/S 766 mmHg 70%
18:00 +19°C° 0 mm 2 m/S 766 mmHg 75%
19:00 +17°C° 0 mm 2 m/S 766 mmHg 80%
20:00 +17°C° 0 mm 2 m/S 767 mmHg 81%
21:00 +16°C° 0 mm 2 m/S 767 mmHg 82%
22:00 +16°C° 0 mm 2 m/S 767 mmHg 83%
23:00 +15°C° 0 mm 2 m/S 767 mmHg 85%

übermorgen, 23 Oktober, Freitag

Zeit Temperatur Niederschläge Wind Luftdruck Luftfeuchtigkeit
00:00 +15°C° 0 mm 1 m/S 767 mmHg 88%
01:00 +15°C° 0 mm 1 m/S 766 mmHg 90%
02:00 +15°C° 0 mm 2 m/S 766 mmHg 92%
03:00 +14°C° 0 mm 2 m/S 767 mmHg 94%
04:00 +14°C° 0 mm 2 m/S 767 mmHg 96%
05:00 +15°C° 0 mm 2 m/S 767 mmHg 94%
06:00 +15°C° 0 mm 2 m/S 767 mmHg 92%
07:00 +15°C° 0 mm 2 m/S 767 mmHg 90%
08:00 +16°C° 0 mm 2 m/S 767 mmHg 79%
09:00 +18°C° 0 mm 2 m/S 767 mmHg 68%
10:00 +19°C° 0 mm 2 m/S 767 mmHg 58%
11:00 +20°C° 0 mm 2 m/S 766 mmHg 57%
12:00 +20°C° 0 mm 2 m/S 766 mmHg 56%
13:00 +21°C° 0 mm 2 m/S 765 mmHg 56%
14:00 +20°C° 0 mm 2 m/S 765 mmHg 59%
15:00 +19°C° 0 mm 2 m/S 765 mmHg 63%
16:00 +18°C° 0 mm 2 m/S 764 mmHg 67%
17:00 +17°C° 0 mm 2 m/S 764 mmHg 73%
18:00 +16°C° 0 mm 2 m/S 764 mmHg 80%
19:00 +14°C° 0 mm 1 m/S 764 mmHg 86%
20:00 +14°C° 0 mm 1 m/S 764 mmHg 88%
21:00 +14°C° 0 mm 1 m/S 764 mmHg 89%
22:00 +14°C° 0 mm 1 m/S 763 mmHg 91%
23:00 +14°C° 0 mm 1 m/S 763 mmHg 92%

24 Oktober, Samstag

Zeit Temperatur Niederschläge Wind Luftdruck Luftfeuchtigkeit
00:00 +14°C° 0 mm 1 m/S 762 mmHg 93%
01:00 +14°C° 0 mm 1 m/S 762 mmHg 94%
02:00 +14°C° 0 mm 1 m/S 762 mmHg 94%
03:00 +15°C° 0 mm 1 m/S 761 mmHg 94%
04:00 +15°C° 0 mm 1 m/S 761 mmHg 93%
05:00 +16°C° 0 mm 2 m/S 761 mmHg 94%
06:00 +16°C° 0 mm 2 m/S 761 mmHg 94%
07:00 +16°C° 0 mm 2 m/S 760 mmHg 95%
08:00 +18°C° 0 mm 3 m/S 760 mmHg 89%
09:00 +19°C° 0 mm 3 m/S 760 mmHg 83%
10:00 +21°C° 0 mm 3 m/S 759 mmHg 77%
11:00 +21°C° 0 mm 3 m/S 759 mmHg 74%
12:00 +22°C° 0 mm 3 m/S 758 mmHg 72%
13:00 +23°C° 0 mm 4 m/S 758 mmHg 69%
14:00 +22°C° 0 mm 3 m/S 757 mmHg 72%
15:00 +23°C° 0 mm 2 m/S 757 mmHg 74%
16:00 +21°C° 0 mm 2 m/S 757 mmHg 77%
17:00 +20°C° 0 mm 2 m/S 758 mmHg 78%
18:00 +20°C° 0 mm 3 m/S 758 mmHg 80%
19:00 +19°C° 0 mm 3 m/S 758 mmHg 82%
20:00 +18°C° 0 mm 3 m/S 759 mmHg 82%
21:00 +17°C° 0 mm 3 m/S 760 mmHg 81%
22:00 +16°C° 0 mm 3 m/S 760 mmHg 81%
23:00 +13°C° 0 mm 3 m/S 761 mmHg 78%

25 Oktober, Sonntag

Zeit Temperatur Niederschläge Wind Luftdruck Luftfeuchtigkeit
00:00 +12°C° 0 mm 3 m/S 761 mmHg 76%
01:00 +11°C° 0 mm 4 m/S 761 mmHg 74%
02:00 +10°C° 0 mm 4 m/S 762 mmHg 71%
03:00 +8°C° 0 mm 4 m/S 763 mmHg 69%
04:00 +8°C° 0 mm 4 m/S 763 mmHg 66%
05:00 +9°C° 0 mm 3 m/S 764 mmHg 67%
06:00 +9°C° 0 mm 3 m/S 765 mmHg 67%
07:00 +9°C° 0 mm 3 m/S 765 mmHg 68%
08:00 +9°C° 0 mm 3 m/S 766 mmHg 66%
09:00 +10°C° 0 mm 3 m/S 766 mmHg 64%
10:00 +11°C° 0 mm 3 m/S 766 mmHg 63%
11:00 +12°C° 0 mm 3 m/S 766 mmHg 61%
12:00 +12°C° 0 mm 3 m/S 766 mmHg 59%
13:00 +14°C° 0 mm 2 m/S 766 mmHg 56%
14:00 +12°C° 0 mm 3 m/S 766 mmHg 58%
15:00 +12°C° 0 mm 3 m/S 767 mmHg 60%
16:00 +11°C° 0 mm 3 m/S 767 mmHg 62%
17:00 +10°C° 0 mm 3 m/S 767 mmHg 64%
18:00 +10°C° 0 mm 3 m/S 767 mmHg 66%
19:00 +10°C° 0 mm 3 m/S 768 mmHg 68%
20:00 +10°C° 0 mm 3 m/S 768 mmHg 69%
21:00 +10°C° 0 mm 4 m/S 768 mmHg 69%
22:00 +10°C° 0 mm 4 m/S 768 mmHg 69%
23:00 +10°C° 0.1 mm 4 m/S 767 mmHg 73%

26 Oktober, Montag

Zeit Temperatur Niederschläge Wind Luftdruck Luftfeuchtigkeit
00:00 +10°C° 0.1 mm 4 m/S 767 mmHg 76%
01:00 +10°C° 0.1 mm 3 m/S 767 mmHg 80%
02:00 +10°C° 0.3 mm 4 m/S 766 mmHg 83%
03:00 +10°C° 0.3 mm 4 m/S 766 mmHg 87%
04:00 +10°C° 0.3 mm 4 m/S 765 mmHg 91%
05:00 +11°C° 0.8 mm 4 m/S 765 mmHg 93%
06:00 +12°C° 0.8 mm 3 m/S 765 mmHg 95%
07:00 +13°C° 0.8 mm 3 m/S 764 mmHg 98%
08:00 +16°C° 0.8 mm 3 m/S 764 mmHg 97%
09:00 +17°C° 0.8 mm 4 m/S 764 mmHg 97%
10:00 +18°C° 0.8 mm 4 m/S 764 mmHg 97%
11:00 +19°C° 0.1 mm 4 m/S 763 mmHg 94%
12:00 +20°C° 0.1 mm 4 m/S 763 mmHg 92%
13:00 +20°C° 0.1 mm 4 m/S 763 mmHg 90%
14:00 +20°C° 0 mm 4 m/S 762 mmHg 90%
15:00 +20°C° 0 mm 4 m/S 762 mmHg 91%
16:00 +20°C° 0 mm 5 m/S 762 mmHg 91%
17:00 +20°C° 0 mm 5 m/S 762 mmHg 92%
18:00 +19°C° 0 mm 5 m/S 762 mmHg 92%
19:00 +19°C° 0 mm 5 m/S 762 mmHg 93%
20:00 +19°C° 0 mm 5 m/S 762 mmHg 91%
21:00 +20°C° 0 mm 5 m/S 762 mmHg 90%
22:00 +20°C° 0 mm 6 m/S 762 mmHg 89%
23:00 +20°C° 0 mm 6 m/S 761 mmHg 88%

27 Oktober, Dienstag

Zeit Temperatur Niederschläge Wind Luftdruck Luftfeuchtigkeit
00:00 +20°C° 0 mm 6 m/S 761 mmHg 88%
01:00 +20°C° 0 mm 7 m/S 760 mmHg 87%
02:00 +20°C° 0 mm 6 m/S 760 mmHg 87%
03:00 +20°C° 0 mm 6 m/S 760 mmHg 87%
04:00 +20°C° 0 mm 5 m/S 760 mmHg 87%
05:00 +20°C° 0 mm 5 m/S 760 mmHg 88%
06:00 +20°C° 0 mm 5 m/S 760 mmHg 88%
07:00 +20°C° 0 mm 5 m/S 760 mmHg 88%
08:00 +21°C° 0 mm 4 m/S 760 mmHg 86%
09:00 +21°C° 0 mm 4 m/S 760 mmHg 84%
10:00 +22°C° 0 mm 4 m/S 760 mmHg 82%
11:00 +22°C° 0 mm 4 m/S 760 mmHg 80%
12:00 +23°C° 0 mm 4 m/S 760 mmHg 78%
13:00 +24°C° 0 mm 3 m/S 760 mmHg 76%
14:00 +22°C° 1 mm 3 m/S 760 mmHg 81%
15:00 +21°C° 1 mm 3 m/S 760 mmHg 86%
16:00 +20°C° 1 mm 3 m/S 760 mmHg 91%
17:00 +19°C° 0.9 mm 3 m/S 760 mmHg 92%
18:00 +18°C° 0.9 mm 3 m/S 760 mmHg 92%
19:00 +18°C° 0.9 mm 2 m/S 760 mmHg 93%
20:00 +16°C° 1.2 mm 3 m/S 760 mmHg 91%
21:00 +14°C° 1.2 mm 3 m/S 761 mmHg 89%
22:00 +13°C° 1.2 mm 3 m/S 761 mmHg 87%
23:00 +12°C° 0.1 mm 3 m/S 761 mmHg 84%
Mehr zeigen

Wir brauchen deine Erlaubnis

Meteoprog und unser Service Anbieter werden persönliche Daten aufbewahren, so wie Cookies, Geräte Bezeichnung oder ähnliche Technologien von deinem Gerät und Prozess, so wie Persönliche Daten Inhalte und Werbungen, genauso wie social Media und den Verkehr zu analysieren.

  • Aufbewahrung und/oder Zugang zu deiner Geräte Informationen.

    Cookies, Geräte Bezeichnung oder andere Informationen, können aufbewahrt oder Zugang zu deinem Gerät erhalten, für den Grund, der oben angegeben wird.

  • Personalisierte Werbung und Inhalte, Messungen, Einblick in das Publikum und Produkt Entwicklung.

    Werbungen und Inhalte können personalisiert werden, basierend auf ein Profil. Mehr Daten können besser personalisierte Werbungen und Inhalte hinzufügen. Werbung und Inhalte können gezeigt und gemessen werden. Einblicke über das Publikum, welche die Werbung gesehen haben und den Inhalt, können abgeleitet werden. So wie Daten können genutzt werden, um es zu verbessern oder die Benutzer Erfahrung zu verbessern das System und die Software.

Wenn du “Ich stimme zu” klickst, erlaubst du uns, die Cookies zu benutzen die Geräte Bezeichnung, den Web oder ähnliche Technologien zu benutzen. Deine Settings, können in deinem Gerät bei deinem Browser geändert werden.

Für den bestimmten Zweck, berechtigten Interessen beruhen darauf, mehr als auf den Inhalt. Du kannst mehr darüber in unseren Privaten und Cookie Politik lesen.